Time,TemperatureF,DewpointF,PressureIn,WindDirection,WindDirectionDegrees,WindSpeedMPH,WindSpeedGustMPH,Humidity,HourlyPrecipIn,Conditions,Clouds,dailyrainin,SolarRadiationWatts/m^2,SoftwareType,DateUTC
2013-04-05 00:08:00,39.8,31.0,30.11,South,190,2.0,-999.0,71,-99.99,,,0.00,0,weatherlink.com 1.10,2013-04-05 04:08:00,
2013-04-05 00:23:00,39.8,31.0,30.11,SSW,212,0.0,-999.0,72,-99.99,,,0.00,0,weatherlink.com 1.10,2013-04-05 04:23:00,
2013-04-05 00:38:00,39.9,32.0,30.10,SSW,207,2.0,-999.0,72,-99.99,,,0.00,0,weatherlink.com 1.10,2013-04-05 04:38:00,
2013-04-05 00:53:00,40.1,32.0,30.11,SW,223,5.0,-999.0,72,-99.99,,,0.00,0,weatherlink.com 1.10,2013-04-05 04:53:00,
2013-04-05 01:08:00,40.2,32.0,30.11,SW,215,3.0,-999.0,72,-99.99,,,0.00,0,weatherlink.com 1.10,2013-04-05 05:08:00,
2013-04-05 01:23:00,40.3,32.0,30.10,SSW,209,2.0,-999.0,72,-99.99,,,0.00,0,weatherlink.com 1.10,2013-04-05 05:23:00,
2013-04-05 01:39:00,40.3,32.0,30.09,SW,217,0.0,-999.0,72,-99.99,,,0.00,0,weatherlink.com 1.10,2013-04-05 05:39:00,
2013-04-05 01:53:00,40.3,32.0,30.07,South,179,4.0,-999.0,72,-99.99,,,0.00,0,weatherlink.com 1.10,2013-04-05 05:53:00,
2013-04-05 02:08:00,40.4,32.0,30.06,South,186,0.0,-999.0,72,-99.99,,,0.00,0,weatherlink.com 1.10,2013-04-05 06:08:00,
2013-04-05 02:24:00,40.7,32.0,30.06,SW,236,0.0,-999.0,72,-99.99,,,0.00,0,weatherlink.com 1.10,2013-04-05 06:24:00,
2013-04-05 02:54:00,40.6,34.0,30.05,SSW,202,3.0,-999.0,76,-99.99,,,0.00,0,weatherlink.com 1.10,2013-04-05 06:54:00,
2013-04-05 03:09:00,39.8,34.0,30.04,SW,219,0.0,-999.0,81,-99.99,,,0.00,0,weatherlink.com 1.10,2013-04-05 07:09:00,
2013-04-05 03:24:00,39.2,35.0,30.04,SSW,194,2.0,-999.0,85,-99.99,,,0.00,0,weatherlink.com 1.10,2013-04-05 07:24:00,
2013-04-05 03:39:00,38.9,35.0,30.02,South,188,1.0,-999.0,87,-99.99,,,0.01,0,weatherlink.com 1.10,2013-04-05 07:39:00,
2013-04-05 03:54:00,38.6,35.0,30.01,South,188,0.0,-999.0,88,-99.99,,,0.01,0,weatherlink.com 1.10,2013-04-05 07:54:00,
2013-04-05 04:09:00,38.4,36.0,30.00,South,188,0.0,-999.0,89,-99.99,,,0.02,0,weatherlink.com 1.10,2013-04-05 08:09:00,
2013-04-05 04:24:00,38.3,36.0,29.99,South,188,0.0,-999.0,90,-99.99,,,0.02,0,weatherlink.com 1.10,2013-04-05 08:24:00,
2013-04-05 04:39:00,38.1,36.0,29.98,South,188,0.0,-999.0,91,-99.99,,,0.02,0,weatherlink.com 1.10,2013-04-05 08:39:00,
2013-04-05 04:54:00,38.1,36.0,29.99,South,188,0.0,-999.0,92,-99.99,,,0.02,0,weatherlink.com 1.10,2013-04-05 08:54:00,
2013-04-05 05:09:00,38.1,36.0,29.99,South,188,0.0,-999.0,92,-99.99,,,0.03,0,weatherlink.com 1.10,2013-04-05 09:09:00,
2013-04-05 05:25:00,38.1,36.0,29.99,South,188,0.0,-999.0,93,-99.99,,,0.03,0,weatherlink.com 1.10,2013-04-05 09:25:00,
2013-04-05 05:40:00,38.1,36.0,29.97,South,188,0.0,-999.0,93,-99.99,,,0.04,0,weatherlink.com 1.10,2013-04-05 09:40:00,
2013-04-05 05:55:00,38.0,37.0,29.98,South,188,0.0,-999.0,94,-99.99,,,0.05,0,weatherlink.com 1.10,2013-04-05 09:55:00,
2013-04-05 06:10:00,38.0,37.0,29.97,South,188,0.0,-999.0,94,-99.99,,,0.06,0,weatherlink.com 1.10,2013-04-05 10:10:00,
2013-04-05 06:25:00,38.1,37.0,29.96,South,188,0.0,-999.0,94,-99.99,,,0.08,0,weatherlink.com 1.10,2013-04-05 10:25:00,
2013-04-05 06:40:00,37.9,37.0,29.95,South,188,0.0,-999.0,95,-99.99,,,0.09,0,weatherlink.com 1.10,2013-04-05 10:40:00,
2013-04-05 06:55:00,37.9,37.0,29.95,South,188,0.0,-999.0,95,-99.99,,,0.10,0,weatherlink.com 1.10,2013-04-05 10:55:00,
2013-04-05 07:10:00,38.0,37.0,29.95,South,188,0.0,-999.0,95,-99.99,,,0.10,0,weatherlink.com 1.10,2013-04-05 11:10:00,
2013-04-05 07:25:00,37.9,37.0,29.94,South,188,0.0,-999.0,95,-99.99,,,0.11,5,weatherlink.com 1.10,2013-04-05 11:25:00,
2013-04-05 07:40:00,37.9,37.0,29.92,South,188,0.0,-999.0,95,-99.99,,,0.11,14,weatherlink.com 1.10,2013-04-05 11:40:00,
2013-04-05 07:55:00,37.9,37.0,29.92,South,188,0.0,-999.0,95,-99.99,,,0.11,53,weatherlink.com 1.10,2013-04-05 11:55:00,
2013-04-05 08:10:00,38.4,37.0,29.93,South,188,0.0,-999.0,96,-99.99,,,0.11,42,weatherlink.com 1.10,2013-04-05 12:10:00,
2013-04-05 08:25:00,38.7,38.0,29.93,South,188,0.0,-999.0,96,-99.99,,,0.11,30,weatherlink.com 1.10,2013-04-05 12:25:00,
2013-04-05 08:40:00,38.9,38.0,29.92,NNW,333,0.0,-999.0,96,-99.99,,,0.11,44,weatherlink.com 1.10,2013-04-05 12:40:00,
2013-04-05 08:55:00,38.9,38.0,29.90,NNW,333,0.0,-999.0,96,-99.99,,,0.11,113,weatherlink.com 1.10,2013-04-05 12:55:00,
2013-04-05 09:10:00,39.4,39.0,29.90,NNW,333,1.0,-999.0,97,-99.99,,,0.11,200,weatherlink.com 1.10,2013-04-05 13:10:00,
2013-04-05 09:25:00,39.8,39.0,29.89,NW,315,0.0,-999.0,96,-99.99,,,0.11,148,weatherlink.com 1.10,2013-04-05 13:25:00,
2013-04-05 09:40:00,40.0,39.0,29.89,NW,314,1.0,-999.0,96,-99.99,,,0.11,311,weatherlink.com 1.10,2013-04-05 13:40:00,
2013-04-05 09:55:00,41.0,39.0,29.89,NW,313,2.0,-999.0,93,-99.99,,,0.11,388,weatherlink.com 1.10,2013-04-05 13:55:00,
2013-04-05 10:10:00,42.3,40.0,29.88,WNW,298,1.0,-999.0,90,-99.99,,,0.11,689,weatherlink.com 1.10,2013-04-05 14:10:00,
2013-04-05 10:25:00,44.3,41.0,29.88,WNW,286,2.0,-999.0,87,-99.99,,,0.11,461,weatherlink.com 1.10,2013-04-05 14:25:00,
2013-04-05 10:40:00,45.6,41.0,29.86,ESE,102,4.0,-999.0,83,-99.99,,,0.11,482,weatherlink.com 1.10,2013-04-05 14:40:00,
2013-04-05 10:55:00,47.1,41.0,29.86,NE,41,0.0,-999.0,78,-99.99,,,0.11,563,weatherlink.com 1.10,2013-04-05 14:55:00,
2013-04-05 11:11:00,48.3,39.0,29.85,NNW,337,0.0,-999.0,71,-99.99,,,0.11,527,weatherlink.com 1.10,2013-04-05 15:11:00,
2013-04-05 11:26:00,49.6,36.0,29.85,NNW,338,1.0,-999.0,61,-99.99,,,0.11,696,weatherlink.com 1.10,2013-04-05 15:26:00,
2013-04-05 11:41:00,51.2,35.0,29.84,North,355,2.0,-999.0,55,-99.99,,,0.11,816,weatherlink.com 1.10,2013-04-05 15:41:00,
2013-04-05 12:11:00,53.0,33.0,29.83,NNW,345,5.0,-999.0,46,-99.99,,,0.11,849,weatherlink.com 1.10,2013-04-05 16:11:00,
2013-04-05 12:41:00,54.8,32.0,29.80,West,280,2.0,-999.0,43,-99.99,,,0.11,872,weatherlink.com 1.10,2013-04-05 16:41:00,
2013-04-05 12:56:00,56.0,32.0,29.79,West,277,2.0,-999.0,41,-99.99,,,0.11,875,weatherlink.com 1.10,2013-04-05 16:56:00,
2013-04-05 13:11:00,56.9,33.0,29.78,NE,43,2.0,-999.0,41,-99.99,,,0.11,872,weatherlink.com 1.10,2013-04-05 17:11:00,
2013-04-05 13:26:00,56.4,30.0,29.79,NNE,24,1.0,-999.0,37,-99.99,,,0.11,868,weatherlink.com 1.10,2013-04-05 17:26:00,
2013-04-05 13:41:00,56.9,30.0,29.79,WNW,293,5.0,-999.0,36,-99.99,,,0.11,861,weatherlink.com 1.10,2013-04-05 17:41:00,
2013-04-05 13:56:00,57.7,29.0,29.77,NNW,344,4.0,-999.0,34,-99.99,,,0.11,847,weatherlink.com 1.10,2013-04-05 17:56:00,
2013-04-05 14:11:00,58.3,29.0,29.76,North,355,3.0,-999.0,33,-99.99,,,0.11,828,weatherlink.com 1.10,2013-04-05 18:11:00,
2013-04-05 14:26:00,60.1,27.0,29.75,West,263,6.0,-999.0,28,-99.99,,,0.11,817,weatherlink.com 1.10,2013-04-05 18:26:00,
2013-04-05 14:41:00,60.6,29.0,29.74,West,277,6.0,-999.0,30,-99.99,,,0.11,793,weatherlink.com 1.10,2013-04-05 18:41:00,
2013-04-05 14:56:00,61.3,26.0,29.74,North,355,7.0,-999.0,26,-99.99,,,0.11,770,weatherlink.com 1.10,2013-04-05 18:56:00,
2013-04-05 15:11:00,61.7,24.0,29.73,WNW,300,3.0,-999.0,24,-99.99,,,0.11,740,weatherlink.com 1.10,2013-04-05 19:11:00,
2013-04-05 15:26:00,62.9,25.0,29.73,North,5,3.0,-999.0,24,-99.99,,,0.11,710,weatherlink.com 1.10,2013-04-05 19:26:00,
2013-04-05 15:42:00,63.4,26.0,29.72,WSW,239,5.0,-999.0,24,-99.99,,,0.11,671,weatherlink.com 1.10,2013-04-05 19:42:00,
2013-04-05 15:57:00,62.4,25.0,29.72,NNW,335,2.0,-999.0,24,-99.99,,,0.11,631,weatherlink.com 1.10,2013-04-05 19:57:00,
2013-04-05 16:12:00,63.0,24.0,29.72,North,360,4.0,-999.0,23,-99.99,,,0.11,584,weatherlink.com 1.10,2013-04-05 20:12:00,
2013-04-05 16:27:00,62.9,24.0,29.72,WNW,285,3.0,-999.0,23,-99.99,,,0.11,536,weatherlink.com 1.10,2013-04-05 20:27:00,
2013-04-05 16:42:00,63.8,24.0,29.72,WNW,301,4.0,-999.0,22,-99.99,,,0.11,485,weatherlink.com 1.10,2013-04-05 20:42:00,
2013-04-05 16:57:00,64.1,26.0,29.73,NNW,331,6.0,-999.0,24,-99.99,,,0.11,431,weatherlink.com 1.10,2013-04-05 20:57:00,
2013-04-05 17:12:00,63.7,28.0,29.74,NNW,340,3.0,-999.0,26,-99.99,,,0.11,383,weatherlink.com 1.10,2013-04-05 21:12:00,
2013-04-05 17:27:00,62.2,26.0,29.75,West,276,5.0,-999.0,25,-99.99,,,0.11,334,weatherlink.com 1.10,2013-04-05 21:27:00,
2013-04-05 17:42:00,62.0,27.0,29.77,NNW,341,6.0,-999.0,26,-99.99,,,0.11,279,weatherlink.com 1.10,2013-04-05 21:42:00,
2013-04-05 17:57:00,61.8,23.0,29.77,North,360,5.0,-999.0,23,-99.99,,,0.11,223,weatherlink.com 1.10,2013-04-05 21:57:00,
2013-04-05 18:12:00,60.8,22.0,29.78,NW,325,1.0,-999.0,22,-99.99,,,0.11,160,weatherlink.com 1.10,2013-04-05 22:12:00,
2013-04-05 18:27:00,59.9,24.0,29.79,NNW,346,2.0,-999.0,25,-99.99,,,0.11,67,weatherlink.com 1.10,2013-04-05 22:27:00,
2013-04-05 18:42:00,59.4,24.0,29.79,NW,318,1.0,-999.0,26,-99.99,,,0.11,49,weatherlink.com 1.10,2013-04-05 22:42:00,
2013-04-05 18:57:00,58.8,26.0,29.80,NNW,343,2.0,-999.0,28,-99.99,,,0.11,26,weatherlink.com 1.10,2013-04-05 22:57:00,
2013-04-05 19:12:00,58.1,27.0,29.81,NNW,337,2.0,-999.0,30,-99.99,,,0.11,12,weatherlink.com 1.10,2013-04-05 23:12:00,
2013-04-05 19:27:00,57.1,25.0,29.82,WNW,298,1.0,-999.0,29,-99.99,,,0.11,0,weatherlink.com 1.10,2013-04-05 23:27:00,
2013-04-05 19:42:00,56.4,23.0,29.83,NNW,340,2.0,-999.0,28,-99.99,,,0.11,0,weatherlink.com 1.10,2013-04-05 23:42:00,
2013-04-05 19:57:00,55.8,23.0,29.84,North,355,2.0,-999.0,28,-99.99,,,0.11,0,weatherlink.com 1.10,2013-04-05 23:57:00,
2013-04-05 20:12:00,55.1,23.0,29.84,NW,325,1.0,-999.0,29,-99.99,,,0.11,0,weatherlink.com 1.10,2013-04-06 00:12:00,
2013-04-05 20:27:00,54.5,23.0,29.85,NW,325,0.0,-999.0,29,-99.99,,,0.11,0,weatherlink.com 1.10,2013-04-06 00:27:00,
2013-04-05 20:42:00,53.9,23.0,29.86,WNW,298,0.0,-999.0,30,-99.99,,,0.11,0,weatherlink.com 1.10,2013-04-06 00:42:00,
2013-04-05 20:57:00,53.6,23.0,29.88,WNW,292,3.0,-999.0,30,-99.99,,,0.11,0,weatherlink.com 1.10,2013-04-06 00:57:00,
2013-04-05 21:12:00,53.2,23.0,29.89,North,355,2.0,-999.0,31,-99.99,,,0.11,0,weatherlink.com 1.10,2013-04-06 01:12:00,
2013-04-05 21:27:00,52.9,24.0,29.91,NNW,328,3.0,-999.0,32,-99.99,,,0.11,0,weatherlink.com 1.10,2013-04-06 01:27:00,
2013-04-05 21:42:00,52.3,24.0,29.92,North,360,2.0,-999.0,33,-99.99,,,0.11,0,weatherlink.com 1.10,2013-04-06 01:42:00,
2013-04-05 21:57:00,51.4,24.0,29.93,North,350,3.0,-999.0,35,-99.99,,,0.11,0,weatherlink.com 1.10,2013-04-06 01:57:00,
2013-04-05 22:12:00,50.6,24.0,29.94,North,360,2.0,-999.0,36,-99.99,,,0.11,0,weatherlink.com 1.10,2013-04-06 02:12:00,
2013-04-05 22:27:00,50.0,24.0,29.95,NNW,342,4.0,-999.0,37,-99.99,,,0.11,0,weatherlink.com 1.10,2013-04-06 02:27:00,
2013-04-05 22:42:00,49.2,24.0,29.95,North,355,2.0,-999.0,38,-99.99,,,0.11,0,weatherlink.com 1.10,2013-04-06 02:42:00,
2013-04-05 22:57:00,48.6,25.0,29.96,North,355,0.0,-999.0,40,-99.99,,,0.11,0,weatherlink.com 1.10,2013-04-06 02:57:00,
2013-04-05 23:12:00,47.6,25.0,29.97,North,350,3.0,-999.0,42,-99.99,,,0.11,0,weatherlink.com 1.10,2013-04-06 03:12:00,
2013-04-05 23:27:00,46.3,25.0,29.98,North,11,2.0,-999.0,44,-99.99,,,0.11,0,weatherlink.com 1.10,2013-04-06 03:27:00,
2013-04-05 23:42:00,45.5,25.0,29.99,NNW,342,5.0,-999.0,45,-99.99,,,0.11,0,weatherlink.com 1.10,2013-04-06 03:42:00,
2013-04-05 23:57:00,44.6,24.0,30.00,North,355,3.0,-999.0,45,-99.99,,,0.11,0,weatherlink.com 1.10,2013-04-06 03:57:00,